Date,TemperatureHighF,TemperatureAvgF,TemperatureLowF,DewpointHighF,DewpointAvgF,DewpointLowF,HumidityHigh,HumidityAvg,HumidityLow,PressureMaxIn,PressureMinIn,WindSpeedMaxMPH,WindSpeedAvgMPH,GustSpeedMaxMPH,PrecipitationSumIn
2013-1-1,20,14,0,14,6,-6,84,70,53,30.58,30.36,6,-410,10,0.00
2013-1-2,31,19,14,11,4,-4,66,51,33,30.56,30.44,11,4,16,0.01
2013-1-3,23,11,4,5,-2,-8,74,54,39,30.62,30.51,4,0,7,0.01
2013-1-4,20,7,-1,6,-1,-7,79,70,53,30.63,30.50,3,-14,7,0.00
2013-1-5,25,10,2,9,2,-4,82,69,48,30.68,30.56,6,1,11,0.00
2013-1-6,28,12,2,13,5,-2,85,75,50,30.62,30.29,5,1,15,0.00
2013-1-7,28,19,9,15,10,3,79,67,55,30.33,30.03,6,1,15,0.00
2013-1-8,42,29,19,20,16,10,71,58,37,30.31,30.05,7,1,15,0.00
2013-1-9,41,28,19,24,18,14,84,65,46,30.34,29.97,4,1,7,0.00
2013-1-10,44,29,16,26,19,12,87,68,40,29.98,29.41,16,4,29,0.00
2013-1-11,34,12,0,22,7,-6,86,80,60,30.21,29.40,8,2,13,0.00
2013-1-12,7,0,-8,1,-6,-13,85,78,68,30.49,30.21,5,0,8,0.00
2013-1-13,10,1,-6,2,-5,-11,83,74,59,30.54,30.48,11,1,17,0.00
2013-1-14,9,0,-8,-3,-8,-13,83,68,57,30.58,30.45,8,1,13,0.01
2013-1-15,15,4,-4,7,-2,-9,86,76,61,30.69,30.51,3,0,7,0.01
2013-1-16,22,12,7,12,7,3,88,79,63,30.72,30.60,3,0,6,0.01
2013-1-17,25,13,4,15,7,0,88,78,53,30.81,30.53,3,0,5,0.01
2013-1-18,45,33,18,26,14,7,66,47,21,30.54,30.16,7,-12,18,0.02
2013-1-19,46,33,23,17,9,3,51,36,19,30.24,30.16,7,2,13,0.02
2013-1-20,36,27,14,16,10,6,78,50,30,30.35,30.19,7,1,12,0.00
2013-1-21,51,34,18,20,12,4,70,41,18,30.35,30.10,9,2,16,0.00
2013-1-22,49,31,22,22,9,1,61,39,19,30.23,30.09,4,1,6,0.00
2013-1-23,46,34,27,22,13,6,60,42,25,30.22,30.08,9,1,14,0.00
2013-1-24,47,37,28,28,19,9,73,49,23,30.15,29.98,11,2,16,0.00
2013-1-25,48,34,23,23,18,12,69,53,31,30.18,30.05,6,2,13,0.00
2013-1-26,43,33,26,26,22,14,78,63,48,30.06,29.77,4,1,10,0.00
2013-1-27,46,36,26,29,24,20,83,64,42,29.78,29.55,10,2,25,0.00
2013-1-28,29,23,13,23,15,-3,88,73,45,29.91,29.70,9,1,13,0.01
2013-1-29,27,15,7,15,4,-3,88,63,33,30.27,29.89,5,1,12,0.01
2013-1-30,42,26,13,21,11,-1,71,54,36,30.20,29.98,8,2,12,0.14
2013-1-31,43,33,24,19,15,11,62,47,32,30.19,30.11,7,2,16,0.02